This is the latest recevied weather packets stored in our database for station/object SR9WXP. If no packets are shown the sender has not sent any weather packets the latest 1 day(s).
| Time | Temp. | Humidity | Pressure | Rain* | Wind** | Luminosity | Snow |
|---|---|---|---|---|---|---|---|
| 1777963417 | 10.56° C | 53% | 853.1 hPa | - | 4.02 m/s, 174° | - | - |
| 1777963293 | 10.56° C | 53% | 853 hPa | - | 4.02 m/s, 170° | - | - |
| 1777963173 | 10.56° C | 53% | 853 hPa | - | 4.92 m/s, 171° | - | - |
| 1777963053 | 10.56° C | 53% | 853.1 hPa | - | 4.47 m/s, 175° | - | - |
| 1777962992 | 10° C | 53% | 853.1 hPa | - | 4.47 m/s, 175° | - | - |
| 1777962933 | 10° C | 53% | 853.2 hPa | - | 4.47 m/s, 176° | - | - |
| 1777962814 | 10° C | 53% | 853.2 hPa | - | 4.02 m/s, 175° | - | - |
| 1777962690 | 10.56° C | 52% | 853.3 hPa | - | 4.47 m/s, 173° | - | - |
| 1777962571 | 10.56° C | 52% | 853.3 hPa | - | 4.47 m/s, 180° | - | - |
| 1777962450 | 10.56° C | 52% | 853.3 hPa | - | 4.47 m/s, 177° | - | - |
| 1777962390 | 10.56° C | 52% | 853.2 hPa | - | 4.47 m/s, 180° | - | - |
| 1777962331 | 11.11° C | 52% | 853.2 hPa | - | 4.47 m/s, 179° | - | - |
| 1777962210 | 11.11° C | 52% | 853 hPa | - | 4.47 m/s, 171° | - | - |
| 1777962087 | 11.11° C | 52% | 852.9 hPa | - | 4.47 m/s, 175° | - | - |
| 1777961847 | 11.11° C | 52% | 852.9 hPa | - | 4.47 m/s, 176° | - | - |
| 1777961787 | 11.11° C | 52% | 852.9 hPa | - | 4.02 m/s, 177° | - | - |
| 1777961727 | 11.11° C | 52% | 852.8 hPa | - | 4.47 m/s, 182° | - | - |
| 1777961607 | 11.11° C | 52% | 852.8 hPa | - | 4.47 m/s, 179° | - | - |
| 1777961484 | 11.11° C | 52% | 852.9 hPa | - | 4.47 m/s, 173° | - | - |
| 1777961184 | 11.11° C | 52% | 852.9 hPa | - | 4.92 m/s, 170° | - | - |
| 1777961125 | 11.11° C | 52% | 852.9 hPa | - | 4.92 m/s, 169° | - | - |
| 1777961004 | 11.11° C | 52% | 853 hPa | - | 5.36 m/s, 170° | - | - |
| 1777960881 | 11.11° C | 52% | 852.9 hPa | - | 5.36 m/s, 172° | - | - |
| 1777960762 | 11.11° C | 52% | 852.9 hPa | - | 5.81 m/s, 169° | - | - |
| 1777960641 | 11.11° C | 52% | 852.9 hPa | - | 4.92 m/s, 176° | - | - |
* Rain since midnight (hover to see other rain measurements)
** Current wind speed in m/s (hover to see current wind gust speed)